Station Historical Data
Daily Summary for August 28, 2017 Units:  English    Metric   Both
« Previous Day
Next Day »
Daily Weekly Monthly Yearly Custom
  High: Low: Average:
Temperature: 76.3 °F 67.7 °F 71.4 °F
Dew Point: 64.2 °F 56.0 °F 59.4 °F
Humidity: 79% 54% 66%
Wind Speed: 2.0mph 0.0mph 0.2mph
Wind Gust: 6.0mph - -
Wind- - WNW
Pressure: 30.05 in 29.98 in -
Precipitation: 0.00 in    
Historical Graphs
 
 
Tabular Data for August 28, 2017
Time Temperature Dew Point Pressure Wind Wind Speed Wind Gust Humidity Rainfall Rate (Hourly) Conditions
00:00 71.0 °F 64.2 °F 30.04 in Calm     79% 0.00 in BKN
00:05 71.0 °F 64.2 °F 30.04 in Calm     79% 0.00 in BKN
00:10 70.9 °F 64.0 °F 30.04 in Calm     79% 0.00 in BKN
00:15 70.8 °F 64.0 °F 30.03 in Calm     79% 0.00 in BKN
00:20 70.7 °F 63.5 °F 30.04 in Calm     78% 0.00 in FEW
00:25 70.7 °F 63.5 °F 30.03 in Calm     78% 0.00 in FEW
00:30 70.7 °F 63.5 °F 30.04 in Calm   1.0 mph 78% 0.00 in FEW
00:35 70.7 °F 63.1 °F 30.03 in Calm     77% 0.00 in FEW
00:40 70.7 °F 62.8 °F 30.03 in Calm   1.0 mph 76% 0.00 in FEW
00:45 70.9 °F 62.2 °F 30.03 in Calm   1.0 mph 74% 0.00 in FEW
00:50 71.2 °F 62.1 °F 30.03 in Calm   1.0 mph 73% 0.00 in FEW
00:55 71.5 °F 62.0 °F 30.03 in Calm   1.0 mph 72% 0.00 in FEW
01:00 71.6 °F 61.7 °F 30.03 in Calm   1.0 mph 71% 0.00 in FEW
01:10 71.8 °F 61.5 °F 30.03 in Calm   1.0 mph 70% 0.00 in FEW
01:15 71.9 °F 61.6 °F 30.03 in Calm     70% 0.00 in FEW
01:20 71.8 °F 61.5 °F 30.03 in Calm   1.0 mph 70% 0.00 in CLR
01:25 71.7 °F 61.4 °F 30.03 in Calm   1.0 mph 70% 0.00 in CLR
01:30 71.7 °F 61.0 °F 30.03 in Calm   1.0 mph 69% 0.00 in CLR
01:40 71.8 °F 61.0 °F 30.03 in Calm   1.0 mph 69% 0.00 in CLR
01:45 71.6 °F 61.3 °F 30.03 in Calm   1.0 mph 70% 0.00 in CLR
01:50 71.6 °F 60.9 °F 30.03 in Calm   1.0 mph 69% 0.00 in CLR
01:55 71.6 °F 60.9 °F 30.03 in Calm   1.0 mph 69% 0.00 in CLR
02:00 71.6 °F 60.9 °F 30.03 in Calm   1.0 mph 69% 0.00 in CLR
02:10 71.6 °F 60.9 °F 30.03 in Calm     69% 0.00 in CLR
02:15 71.6 °F 60.9 °F 30.03 in Calm     69% 0.00 in CLR
02:20 71.5 °F 60.8 °F 30.03 in Calm     69% 0.00 in BKN
02:25 71.5 °F 60.8 °F 30.03 in Calm     69% 0.00 in BKN
02:30 71.5 °F 60.8 °F 30.02 in Calm     69% 0.00 in BKN
02:35 71.4 °F 60.7 °F 30.02 in Calm     69% 0.00 in BKN
02:40 71.4 °F 61.1 °F 30.02 in Calm   1.0 mph 70% 0.00 in BKN
02:45 71.3 °F 60.6 °F 30.02 in Calm   1.0 mph 69% 0.00 in BKN
02:50 71.4 °F 61.1 °F 30.02 in Calm   1.0 mph 70% 0.00 in BKN
02:55 71.3 °F 61.0 °F 30.02 in Calm   2.0 mph 70% 0.00 in BKN
03:00 71.3 °F 61.0 °F 30.02 in Calm   2.0 mph 70% 0.00 in BKN
03:10 71.0 °F 60.7 °F 30.02 in Calm   1.0 mph 70% 0.00 in BKN
03:15 70.9 °F 61.0 °F 30.02 in WNW 1.0 mph 2.0 mph 71% 0.00 in BKN
03:20 70.9 °F 60.6 °F 30.02 in Calm   2.0 mph 70% 0.00 in BKN
03:25 70.9 °F 61.0 °F 30.02 in Calm   1.0 mph 71% 0.00 in BKN
03:30 70.7 °F 60.8 °F 30.02 in Calm   1.0 mph 71% 0.00 in BKN
03:40 70.6 °F 60.7 °F 30.02 in Calm   2.0 mph 71% 0.00 in BKN
03:50 70.5 °F 60.6 °F 30.02 in Calm   1.0 mph 71% 0.00 in BKN
03:55 70.4 °F 60.9 °F 30.02 in Calm   1.0 mph 72% 0.00 in BKN
04:00 70.3 °F 60.8 °F 30.02 in Calm   1.0 mph 72% 0.00 in BKN
04:10 70.1 °F 60.3 °F 30.02 in Calm   1.0 mph 71% 0.00 in BKN
04:15 70.1 °F 60.3 °F 30.02 in Calm   1.0 mph 71% 0.00 in BKN
04:20 70.1 °F 60.3 °F 30.02 in Calm   3.0 mph 71% 0.00 in FEW
04:25 70.0 °F 60.2 °F 30.02 in Calm   2.0 mph 71% 0.00 in FEW
04:30 69.9 °F 60.5 °F 30.02 in Calm   1.0 mph 72% 0.00 in FEW
04:35 69.9 °F 60.5 °F 30.01 in Calm   1.0 mph 72% 0.00 in FEW
04:40 69.8 °F 60.0 °F 30.01 in Calm   2.0 mph 71% 0.00 in FEW
04:45 69.8 °F 60.4 °F 30.01 in Calm   1.0 mph 72% 0.00 in FEW
04:50 69.7 °F 59.9 °F 30.02 in Calm   1.0 mph 71% 0.00 in FEW
04:55 69.6 °F 60.2 °F 30.01 in Calm   1.0 mph 72% 0.00 in FEW
05:00 69.6 °F 60.2 °F 30.01 in Calm   1.0 mph 72% 0.00 in FEW
05:05 69.5 °F 60.1 °F 30.01 in Calm   1.0 mph 72% 0.00 in FEW
05:10 69.4 °F 60.0 °F 30.02 in Calm   2.0 mph 72% 0.00 in FEW
05:15 69.4 °F 60.0 °F 30.02 in Calm   1.0 mph 72% 0.00 in FEW
05:20 69.3 °F 59.9 °F 30.02 in Calm   1.0 mph 72% 0.00 in CLR
05:25 69.2 °F 59.8 °F 30.02 in Calm   2.0 mph 72% 0.00 in CLR
05:30 69.1 °F 59.7 °F 30.02 in Calm   2.0 mph 72% 0.00 in CLR
05:35 69.1 °F 59.7 °F 30.02 in West 1.0 mph 2.0 mph 72% 0.00 in CLR
05:40 69.1 °F 59.7 °F 30.02 in Calm   1.0 mph 72% 0.00 in CLR
05:50 68.9 °F 59.5 °F 30.03 in Calm   1.0 mph 72% 0.00 in CLR
05:55 68.8 °F 59.4 °F 30.02 in Calm   1.0 mph 72% 0.00 in CLR
06:00 68.8 °F 59.4 °F 30.03 in Calm   2.0 mph 72% 0.00 in CLR
06:05 68.7 °F 59.3 °F 30.03 in West 1.0 mph 2.0 mph 72% 0.00 in CLR
06:10 68.6 °F 59.2 °F 30.03 in Calm   1.0 mph 72% 0.00 in CLR
06:15 68.6 °F 59.2 °F 30.03 in Calm   2.0 mph 72% 0.00 in CLR
06:20 68.5 °F 59.1 °F 30.03 in Calm   1.0 mph 72% 0.00 in FEW
06:25 68.4 °F 59.4 °F 30.03 in Calm   1.0 mph 73% 0.00 in FEW
06:30 68.4 °F 59.4 °F 30.03 in Calm   1.0 mph 73% 0.00 in FEW
06:35 68.3 °F 59.3 °F 30.03 in WNW 1.0 mph 1.0 mph 73% 0.00 in FEW
06:40 68.2 °F 58.8 °F 30.03 in Calm   1.0 mph 72% 0.00 in FEW
06:45 68.2 °F 59.2 °F 30.03 in Calm   1.0 mph 73% 0.00 in FEW
06:50 68.1 °F 58.7 °F 30.03 in Calm   2.0 mph 72% 0.00 in FEW
06:55 68.1 °F 58.3 °F 30.04 in Calm   2.0 mph 71% 0.00 in FEW
07:00 68.1 °F 57.9 °F 30.04 in WNW 1.0 mph 2.0 mph 70% 0.00 in FEW
07:10 68.1 °F 57.9 °F 30.04 in Calm   3.0 mph 70% 0.00 in FEW
07:15 68.1 °F 57.9 °F 30.04 in WNW 1.0 mph 2.0 mph 70% 0.00 in FEW
07:20 68.1 °F 57.9 °F 30.04 in Calm   1.0 mph 70% 0.00 in BKN
07:30 68.0 °F 57.4 °F 30.04 in WNW 1.0 mph 2.0 mph 69% 0.00 in BKN
07:40 68.0 °F 57.5 °F 30.04 in WNW 1.0 mph 3.0 mph 69% 0.00 in BKN
07:45 68.0 °F 57.4 °F 30.04 in WNW 1.0 mph 3.0 mph 69% 0.00 in BKN
07:50 68.0 °F 57.4 °F 30.04 in WNW 1.0 mph 2.0 mph 69% 0.00 in BKN
07:55 67.9 °F 56.9 °F 30.04 in West 1.0 mph 2.0 mph 68% 0.00 in BKN
08:00 67.9 °F 57.4 °F 30.04 in Calm   5.0 mph 69% 0.00 in BKN
08:05 67.9 °F 56.9 °F 30.04 in West 1.0 mph 2.0 mph 68% 0.00 in BKN
08:10 67.9 °F 57.4 °F 30.04 in WNW 1.0 mph 5.0 mph 69% 0.00 in BKN
08:15 67.9 °F 56.9 °F 30.05 in WNW 2.0 mph 5.0 mph 68% 0.00 in BKN
08:20 67.9 °F 57.4 °F 30.05 in Calm   2.0 mph 69% 0.00 in BKN
08:25 67.9 °F 57.4 °F 30.05 in Calm   1.0 mph 69% 0.00 in BKN
08:30 67.8 °F 56.9 °F 30.05 in Calm   3.0 mph 68% 0.00 in BKN
08:35 67.8 °F 56.9 °F 30.05 in West 1.0 mph 2.0 mph 68% 0.00 in BKN
08:40 67.8 °F 56.9 °F 30.04 in Calm   3.0 mph 68% 0.00 in BKN
08:45 67.8 °F 56.4 °F 30.05 in Calm   2.0 mph 67% 0.00 in BKN
08:50 67.8 °F 56.9 °F 30.05 in West 1.0 mph 1.0 mph 68% 0.00 in BKN
08:55 67.7 °F 56.3 °F 30.05 in West 1.0 mph 2.0 mph 67% 0.00 in BKN
09:05 67.8 °F 56.4 °F 30.05 in WNW 1.0 mph 2.0 mph 67% 0.00 in BKN
09:10 67.9 °F 56.5 °F 30.05 in Calm   3.0 mph 67% 0.00 in BKN
09:15 68.0 °F 56.6 °F 30.05 in Calm   5.0 mph 67% 0.00 in BKN
09:20 68.0 °F 57.0 °F 30.05 in Calm   2.0 mph 68% 0.00 in BKN
09:25 68.1 °F 56.7 °F 30.05 in WNW 1.0 mph 2.0 mph 67% 0.00 in BKN
09:30 68.2 °F 56.4 °F 30.05 in West 1.0 mph 2.0 mph 66% 0.00 in BKN
09:35 68.3 °F 56.9 °F 30.05 in Calm   5.0 mph 67% 0.00 in BKN
09:40 68.3 °F 56.5 °F 30.05 in West 2.0 mph 5.0 mph 66% 0.00 in BKN
09:45 68.4 °F 56.6 °F 30.05 in West 2.0 mph 6.0 mph 66% 0.00 in BKN
09:50 68.5 °F 57.1 °F 30.05 in Calm   1.0 mph 67% 0.00 in BKN
09:55 68.8 °F 57.0 °F 30.05 in WNW 1.0 mph 2.0 mph 66% 0.00 in BKN
10:01 69.1 °F 57.2 °F 30.05 in WNW 1.0 mph 3.0 mph 66% 0.00 in BKN
10:10 69.3 °F 56.6 °F 30.05 in Calm   3.0 mph 64% 0.00 in BKN
10:20 69.4 °F 56.3 °F 30.05 in West 1.0 mph 2.0 mph 63% 0.00 in BKN
10:35 70.5 °F 57.3 °F 30.04 in Calm   2.0 mph 63% 0.00 in BKN
10:40 70.7 °F 57.0 °F 30.04 in WNW 1.0 mph 2.0 mph 62% 0.00 in BKN
10:45 70.4 °F 56.3 °F 30.04 in West 1.0 mph 3.0 mph 61% 0.00 in BKN
10:50 70.3 °F 56.2 °F 30.04 in West 2.0 mph 5.0 mph 61% 0.00 in BKN
10:55 70.2 °F 56.6 °F 30.04 in West 1.0 mph 2.0 mph 62% 0.00 in BKN
11:00 70.3 °F 57.1 °F 30.04 in West 1.0 mph 2.0 mph 63% 0.00 in BKN
11:05 70.5 °F 57.7 °F 30.04 in Calm   2.0 mph 64% 0.00 in BKN
11:10 70.5 °F 56.9 °F 30.04 in Calm   3.0 mph 62% 0.00 in BKN
11:15 70.5 °F 56.4 °F 30.05 in WNW 1.0 mph 3.0 mph 61% 0.00 in BKN
11:20 70.6 °F 56.0 °F 30.05 in NW 1.0 mph 3.0 mph 60% 0.00 in BKN
11:30 70.6 °F 56.9 °F 30.04 in Calm   3.0 mph 62% 0.00 in BKN
11:40 71.2 °F 56.6 °F 30.04 in Calm   3.0 mph 60% 0.00 in BKN
11:45 71.6 °F 57.4 °F 30.04 in NNW 1.0 mph 2.0 mph 61% 0.00 in BKN
11:50 72.3 °F 57.6 °F 30.03 in NNW 1.0 mph 3.0 mph 60% 0.00 in BKN
11:55 72.8 °F 57.7 °F 30.03 in NW 1.0 mph 2.0 mph 59% 0.00 in BKN
12:00 73.1 °F 57.5 °F 30.03 in WNW 1.0 mph 3.0 mph 58% 0.00 in BKN
12:05 73.6 °F 56.9 °F 30.03 in WNW 1.0 mph 5.0 mph 56% 0.00 in BKN
12:10 73.6 °F 56.9 °F 30.04 in WNW 2.0 mph 5.0 mph 56% 0.00 in BKN
12:15 73.2 °F 57.5 °F 30.04 in WNW 1.0 mph 5.0 mph 58% 0.00 in BKN
12:20 73.1 °F 57.9 °F 30.04 in Calm   3.0 mph 59% 0.00 in BKN
12:25 73.1 °F 57.0 °F 30.03 in WNW 1.0 mph 3.0 mph 57% 0.00 in BKN
12:30 73.1 °F 57.4 °F 30.04 in Calm   3.0 mph 58% 0.00 in BKN
12:35 73.0 °F 58.3 °F 30.04 in WNW 1.0 mph 1.0 mph 60% 0.00 in BKN
12:40 73.1 °F 57.9 °F 30.04 in Calm   2.0 mph 59% 0.00 in BKN
12:45 73.0 °F 57.8 °F 30.04 in Calm   2.0 mph 59% 0.00 in BKN
12:50 72.9 °F 58.2 °F 30.04 in Calm   2.0 mph 60% 0.00 in BKN
12:55 73.0 °F 58.3 °F 30.04 in Calm   2.0 mph 60% 0.00 in BKN
13:00 73.1 °F 57.9 °F 30.04 in West 1.0 mph 3.0 mph 59% 0.00 in BKN
13:05 72.9 °F 58.2 °F 30.04 in Calm   2.0 mph 60% 0.00 in BKN
13:10 73.0 °F 58.8 °F 30.04 in Calm   2.0 mph 61% 0.00 in BKN
13:15 73.1 °F 58.4 °F 30.04 in WNW 1.0 mph 2.0 mph 60% 0.00 in BKN
13:20 73.2 °F 58.4 °F 30.03 in NW 1.0 mph 1.0 mph 60% 0.00 in OVC
13:30 73.3 °F 58.6 °F 30.02 in WNW 1.0 mph 1.0 mph 60% 0.00 in OVC
13:40 73.2 °F 58.0 °F 30.02 in WNW 2.0 mph 5.0 mph 59% 0.00 in OVC
13:45 73.1 °F 58.4 °F 30.02 in Calm   1.0 mph 60% 0.00 in OVC
13:50 73.1 °F 58.8 °F 30.02 in Calm   2.0 mph 61% 0.00 in OVC
13:55 73.0 °F 58.3 °F 30.02 in Calm   2.0 mph 60% 0.00 in OVC
14:00 72.9 °F 58.2 °F 30.02 in Calm   1.0 mph 60% 0.00 in OVC
14:05 73.0 °F 59.7 °F 30.02 in Calm     63% 0.00 in OVC
14:10 73.1 °F 59.3 °F 30.02 in Calm   2.0 mph 62% 0.00 in OVC
14:15 73.2 °F 59.4 °F 30.02 in Calm   1.0 mph 62% 0.00 in OVC
14:20 73.2 °F 58.5 °F 30.02 in Calm   3.0 mph 60% 0.00 in OVC
14:25 73.2 °F 58.9 °F 30.02 in Calm   2.0 mph 61% 0.00 in OVC
14:30 73.3 °F 58.6 °F 30.02 in WNW 1.0 mph 2.0 mph 60% 0.00 in OVC
14:40 73.9 °F 59.2 °F 30.02 in Calm   2.0 mph 60% 0.00 in OVC
14:45 74.4 °F 58.7 °F 30.02 in Calm   3.0 mph 58% 0.00 in OVC
14:50 75.0 °F 59.2 °F 30.02 in Calm   2.0 mph 58% 0.00 in OVC
14:55 75.2 °F 58.4 °F 30.02 in Calm   1.0 mph 56% 0.00 in OVC
15:00 75.3 °F 59.0 °F 30.01 in WNW 1.0 mph 2.0 mph 57% 0.00 in OVC
15:10 75.5 °F 58.7 °F 30.01 in Calm   5.0 mph 56% 0.00 in OVC
15:15 75.4 °F 59.1 °F 30.01 in Calm   2.0 mph 57% 0.00 in OVC
15:20 75.5 °F 59.2 °F 30.01 in Calm   2.0 mph 57% 0.00 in BKN
15:25 75.7 °F 60.4 °F 30.01 in Calm   3.0 mph 59% 0.00 in BKN
15:30 76.0 °F 60.6 °F 30.01 in Calm   1.0 mph 59% 0.00 in BKN
15:35 76.0 °F 59.7 °F 30.01 in NW 1.0 mph 1.0 mph 57% 0.00 in BKN
15:40 75.9 °F 59.1 °F 30.00 in Calm   2.0 mph 56% 0.00 in BKN
15:45 76.0 °F 59.7 °F 30.00 in Calm   1.0 mph 57% 0.00 in BKN
15:55 76.0 °F 60.1 °F 30.00 in Calm   3.0 mph 58% 0.00 in BKN
16:00 75.9 °F 60.1 °F 30.00 in Calm     58% 0.00 in BKN
16:05 76.2 °F 59.3 °F 30.00 in Calm   2.0 mph 56% 0.00 in BKN
16:10 76.3 °F 59.9 °F 29.99 in NNE 1.0 mph 1.0 mph 57% 0.00 in BKN
16:15 76.3 °F 59.4 °F 29.99 in Calm   1.0 mph 56% 0.00 in BKN
16:20 76.1 °F 58.3 °F 29.99 in Calm   2.0 mph 54% 0.00 in BKN
16:25 75.9 °F 58.6 °F 29.99 in Calm   1.0 mph 55% 0.00 in BKN
16:30 75.9 °F 60.5 °F 29.99 in Calm   1.0 mph 59% 0.00 in BKN
16:40 76.0 °F 59.7 °F 29.99 in WSW 1.0 mph 1.0 mph 57% 0.00 in BKN
16:45 75.8 °F 59.0 °F 29.99 in Calm   2.0 mph 56% 0.00 in BKN
16:50 75.7 °F 58.4 °F 29.99 in Calm   2.0 mph 55% 0.00 in BKN
16:55 75.7 °F 59.9 °F 29.99 in Calm   1.0 mph 58% 0.00 in BKN
17:00 75.5 °F 59.2 °F 29.99 in Calm   1.0 mph 57% 0.00 in BKN
17:05 75.4 °F 59.6 °F 29.99 in Calm   1.0 mph 58% 0.00 in BKN
17:10 75.3 °F 59.5 °F 29.99 in Calm   1.0 mph 58% 0.00 in BKN
17:15 75.2 °F 59.4 °F 29.99 in Calm   2.0 mph 58% 0.00 in BKN
17:20 75.2 °F 59.9 °F 29.99 in Calm   2.0 mph 59% 0.00 in BKN
17:25 75.3 °F 60.0 °F 29.99 in Calm   1.0 mph 59% 0.00 in BKN
17:30 75.4 °F 60.1 °F 29.99 in Calm     59% 0.00 in BKN
17:40 75.1 °F 59.8 °F 29.98 in Calm   1.0 mph 59% 0.00 in BKN
17:45 74.9 °F 60.1 °F 29.99 in Calm   1.0 mph 60% 0.00 in BKN
17:50 74.8 °F 59.5 °F 29.98 in Calm   2.0 mph 59% 0.00 in BKN
17:55 74.8 °F 59.5 °F 29.98 in Calm   3.0 mph 59% 0.00 in BKN
18:00 74.8 °F 59.0 °F 29.99 in Calm   5.0 mph 58% 0.00 in BKN
18:10 74.7 °F 59.9 °F 29.99 in Calm   1.0 mph 60% 0.00 in BKN
18:15 74.6 °F 60.7 °F 29.99 in Calm   1.0 mph 62% 0.00 in BKN
18:20 74.3 °F 60.0 °F 29.99 in Calm   2.0 mph 61% 0.00 in BKN
18:25 74.1 °F 58.9 °F 29.99 in Calm   2.0 mph 59% 0.00 in BKN
18:30 73.9 °F 60.1 °F 29.99 in Calm   1.0 mph 62% 0.00 in BKN
18:40 73.6 °F 60.2 °F 29.99 in Calm   1.0 mph 63% 0.00 in BKN
18:45 73.6 °F 60.7 °F 29.99 in Calm     64% 0.00 in BKN
18:50 73.5 °F 60.1 °F 29.99 in Calm   2.0 mph 63% 0.00 in BKN
18:55 73.4 °F 60.5 °F 29.99 in Calm   1.0 mph 64% 0.00 in BKN
19:00 73.3 °F 59.9 °F 29.99 in Calm     63% 0.00 in BKN
19:05 73.2 °F 59.9 °F 29.99 in Calm     63% 0.00 in BKN
19:10 73.1 °F 60.2 °F 29.99 in Calm     64% 0.00 in BKN
19:15 73.1 °F 60.6 °F 30.00 in Calm     65% 0.00 in BKN
19:20 72.9 °F 60.0 °F 29.99 in Calm     64% 0.00 in BKN
19:25 72.9 °F 60.4 °F 29.99 in Calm   1.0 mph 65% 0.00 in BKN
19:30 72.8 °F 60.8 °F 30.00 in Calm     66% 0.00 in BKN
19:35 72.7 °F 60.7 °F 29.99 in Calm     66% 0.00 in BKN
19:40 72.7 °F 61.1 °F 29.99 in Calm     67% 0.00 in BKN
19:45 72.5 °F 60.9 °F 30.00 in Calm     67% 0.00 in BKN
19:50 72.3 °F 60.7 °F 29.99 in Calm     67% 0.00 in BKN
19:55 72.2 °F 61.0 °F 29.99 in Calm     68% 0.00 in BKN
20:00 72.0 °F 60.9 °F 29.99 in Calm     68% 0.00 in BKN
20:05 71.9 °F 61.2 °F 29.99 in Calm     69% 0.00 in BKN
20:10 71.8 °F 61.1 °F 29.99 in Calm     69% 0.00 in BKN
20:15 71.7 °F 61.4 °F 29.99 in Calm     70% 0.00 in BKN
20:20 71.6 °F 61.3 °F 29.99 in Calm     70% 0.00 in BKN
20:25 71.5 °F 61.2 °F 29.99 in Calm     70% 0.00 in BKN
20:30 71.4 °F 61.5 °F 29.99 in Calm     71% 0.00 in BKN
20:35 71.3 °F 61.4 °F 30.00 in Calm     71% 0.00 in BKN
20:40 71.2 °F 61.7 °F 30.00 in Calm     72% 0.00 in BKN
20:45 71.1 °F 61.2 °F 30.00 in Calm     71% 0.00 in BKN
20:50 70.9 °F 61.0 °F 29.99 in Calm     71% 0.00 in BKN
20:55 70.9 °F 61.0 °F 29.99 in Calm     71% 0.00 in BKN
21:00 70.8 °F 60.9 °F 29.99 in Calm     71% 0.00 in BKN
21:10 70.7 °F 61.2 °F 29.99 in Calm     72% 0.00 in BKN
21:15 70.6 °F 60.7 °F 29.99 in Calm     71% 0.00 in BKN
21:20 70.5 °F 60.6 °F 29.99 in Calm     71% 0.00 in BKN
21:25 70.5 °F 60.6 °F 29.99 in Calm     71% 0.00 in BKN
21:30 70.4 °F 60.5 °F 29.99 in Calm     71% 0.00 in BKN
21:35 70.3 °F 60.4 °F 30.00 in Calm     71% 0.00 in BKN
21:40 70.2 °F 60.4 °F 29.99 in Calm     71% 0.00 in BKN
21:45 70.1 °F 60.3 °F 29.99 in Calm     71% 0.00 in BKN
21:50 69.9 °F 60.1 °F 29.99 in Calm     71% 0.00 in BKN
21:55 69.8 °F 60.4 °F 29.99 in Calm     72% 0.00 in BKN
22:00 69.7 °F 60.7 °F 29.99 in Calm     73% 0.00 in BKN
22:10 69.6 °F 60.6 °F 30.00 in Calm     73% 0.00 in BKN
22:15 69.5 °F 59.7 °F 30.00 in Calm     71% 0.00 in BKN
22:20 69.5 °F 60.1 °F 30.00 in Calm     72% 0.00 in BKN
22:25 69.5 °F 60.1 °F 30.00 in Calm     72% 0.00 in BKN
22:30 69.4 °F 60.0 °F 30.01 in Calm     72% 0.00 in BKN
22:35 69.4 °F 59.6 °F 30.01 in Calm     71% 0.00 in BKN
22:40 69.4 °F 59.6 °F 30.01 in Calm     71% 0.00 in BKN
22:45 69.4 °F 59.6 °F 30.01 in Calm     71% 0.00 in BKN
22:50 69.4 °F 60.0 °F 30.01 in Calm     72% 0.00 in BKN
22:55 69.3 °F 59.5 °F 30.01 in Calm     71% 0.00 in BKN
23:00 69.4 °F 59.2 °F 30.00 in Calm   1.0 mph 70% 0.00 in BKN
23:10 69.5 °F 58.9 °F 30.00 in Calm     69% 0.00 in BKN
23:25 69.7 °F 58.7 °F 30.00 in Calm   2.0 mph 68% 0.00 in BKN
23:30 69.9 °F 58.9 °F 30.00 in Calm     68% 0.00 in BKN
23:40 70.2 °F 58.7 °F 30.00 in Calm   1.0 mph 67% 0.00 in BKN
23:45 70.2 °F 58.7 °F 30.00 in Calm   1.0 mph 67% 0.00 in BKN
23:50 70.3 °F 58.4 °F 30.00 in Calm   2.0 mph 66% 0.00 in BKN
23:55 70.3 °F 58.4 °F 29.99 in Calm   1.0 mph 66% 0.00 in BKN
Piedmont Bend
Compliments of Weather Underground - 4 mb